Preview of NWS' New Version of Forecast
This preview is not operational and should not be used for support decisions.

Regional Weather Roundup (RWR)

Issued by Philadelphia/Mt Holly (PHI)

                            
000
ASUS41 KPHI 221112
RWRPHI

REGIONAL WEATHER ROUNDUP
NATIONAL WEATHER SERVICE MOUNT HOLLY NJ
700 AM EDT FRI MAR 22 2019

NOTE:  "FAIR" INDICATES FEW OR NO CLOUDS BELOW 12,000 FEET WITH NO
SIGNIFICANT WEATHER AND/OR OBSTRUCTIONS TO VISIBILITY.

 * = STATION DOES NOT REPORT PRECIPITATION (E.G. RAIN, SNOW, ETC.) 
        OR FOG.

NJZ015>026-221200-
SOUTHERN NEW JERSEY
  
CITY           SKY/WX    TMP DP  RH WIND       PRES   REMARKS
POMONA         LGT RAIN  42  41  96 NW23G39   29.32R                  
WILDWOOD*      LGT RAIN  42  41  96 NW16G29   29.40R FOG              
MILLVILLE      LGT RAIN  42  39  89 NW16G28   29.39R                  
MOUNT HOLLY    LGT RAIN  41  37  86 NW18G28   29.37R                  
TRENTON        LGT RAIN  40  37  89 NW17G29   29.36R WCI  31          

$$
NJZ001>014-221200-
NORTHERN NEW JERSEY
  
CITY           SKY/WX    TMP DP  RH WIND       PRES   REMARKS
SUSSEX         LGT RAIN  38  35  89 N9        29.39S WCI  31          
ANDOVER*         N/A     36  33  89 N8G18     29.39S WCI  30          
MORRISTOWN     RAIN      39  39 100 N16G24    29.35R FOG     WCI  30  
NEWARK         LGT RAIN  42  40  92 N18G29    29.31S FOG              
TETERBORO      LGT RAIN  43  40  89 N13       29.31F FOG              
CALDWELL       LGT RAIN  41  40  96 VRB6      29.35S FOG              
SOMERVILLE     RAIN      39  36  89 N15G28    29.35R FOG     WCI  31  
ALLAIRE*       LGT RAIN  45  43  93 NW18G29   29.27R FOG              
TOMS RIVER*    LGT RAIN  42  42 100 NW18G28   29.29R FOG              

$$
PAZ043-044-047-054-055-060>062-066>071-221200-
EASTERN PENNSYLVANIA
  
CITY           SKY/WX    TMP DP  RH WIND       PRES   REMARKS
PHILADELPHIA   LGT RAIN  41  37  86 NW17G28   29.42R                  
NORTH PHILA    LGT RAIN  43  37  79 NW20G32   29.40R                  
BLUE BELL*     CLOUDY    37  37 100 NW7G16    29.43R WCI  32          
DOYLESTOWN     LGT RAIN  39  36  89 NW13G22   29.39R WCI  31          
QUAKERTOWN*    CLOUDY    37  36  93 NW12G23   29.43R WCI  30          
PERKASIE*      LGT RAIN  37  37 100 NW13G22   29.42R WCI  29          
POTTSTOWN      RAIN      35  35 100 NW12      29.46R WCI  27          
LANCASTER      CLOUDY    44  38  79 NW14      29.49R                  
COATESVILLE    LGT RAIN  39  37  93 NW17G28   29.46R WCI  30          
READING        LGT RAIN  41  39  93 NW17      29.47R                  
ALLENTOWN      LGT RAIN  41  34  76 NW12      29.44R                  
MOUNT POCONO   LGT SNOW  32  32 100 NW22G30   29.37F FOG     WCI  19  
HAZLETON       LGT SNOW  34  32  93 NW12      29.48S WCI  25          
LEHIGHTON      LGT RAIN  37  34  87 NW7G18    29.46R WCI  32          
WILKES BARRE   LGT SNOW  34  33  96 N6        29.47F FOG     WCI  29  

$$
DEZALL-MDZ008-012-015-019-020-221200-
DELAWARE AND EASTERN MARYLAND
  
CITY           SKY/WX    TMP DP  RH WIND       PRES   REMARKS
WILMINGTON     LGT RAIN  40  36  86 NW16G36   29.45R WCI  31          
GEORGETOWN     LGT RAIN  45  39  79 NW12G29   29.47R                  
EASTON         CLOUDY    46  39  76 W22G31    29.54R                  
PATUXENT       MOCLDY    46  41  82 W20G28    29.57                   
OCEAN CITY     LGT RAIN  43  40  89 NW10G28   29.46R                  
WALLOPS ISLAND LGT RAIN  47  41  80 W18G26    29.51R                  
CAMBRIDGE      CLOUDY    46  39  76 NW21G31   29.52R                  
SALISBURY      LGT RAIN  44  42  93 W15G29    29.50R                  

$$
PAZ001-021-NYZ056-072-MDZ011-DCZ001-221200-
OTHER NEARBY LOCATIONS
  
CITY           SKY/WX    TMP DP  RH WIND       PRES   REMARKS
HARRISBURG     CLOUDY    44  35  70 NW28G36   29.52R                  
STATE COLLEGE  CLOUDY    36  32  87 NW10G22   29.61R WCI  28          
WILLIAMSPORT   CLOUDY    40  33  76 NW15G26   29.55R WCI  32          
BINGHAMTON     LGT SNOW  33  32  96 NW12      29.47F FOG     WCI  24  
NEW YORK CITY  LGT RAIN  43  41  93 VRB7      29.33  FOG              
BALTIMORE      MOCLDY    44  36  73 W22G30    29.52R                  
WASHINGTON DC  CLOUDY    47  35  63 NW23G35   29.59R                  

$$